User: anonymous   Login
Location: Santa Barbara
(34.4500°N, 119.7700°W)
Time: 00:15:58
(UTC-07:00)
Language:

Cosmos 1892 Rocket - Orbit

View from above orbital plane
View from above orbital plane
View from above satellite
View from above satellite

Ground track
Ground track

The orbit data is extracted from the following two-line orbital elements,

1 18422U 87088B   17291.49436027  .00000075  00000-0  62947-5 0  9998
2 18422  82.5124  61.3304 0020473  36.8147   7.6736 14.82944767620091
Epoch (UTC): 18 October 2017 11:51:52
Eccentricity: 0.0020473
inclination: 82.5124°
perigee height: 606 km
apogee height: 634 km
right ascension of ascending node: 61.3304°
argument of perigee: 36.8147°
revolutions per day: 14.82944767
mean anomaly at epoch: 7.6736°
orbit number at epoch: 62009

The dashed part of the orbit path shows where the satellite is in the earth's shadow,  

DLR